Regional Weather Roundup
Issued by NWS Spokane, WA

Home | Current Version | Previous Version | Text Only | Print | Product List | Glossary On
Versions: 1 2 3 4 5 6 7 8 9 10 11 12 13 14 15 16 17 18 19 20 21 22 23 24 25 26 27 28 29 30 31 32 33 34 35 36 37 38 39 40 41 42 43 44 45 46 47 48 49 50
439
NZUS01 KOTX 280225
RWROTX

Eastern Washington/Northern Idaho Roundup
National Weather Service, Spokane WA
600 PM PST MON FEB 27 2017

Note: "fair" indicated few or no clouds below 12,000 feet with no
significant weather and/or obstructions to visibility.

...Northeast Washington and Northern Idaho Panhandle...

CITY           SKY/WX    TMP DP  RH WIND       PRES   REMARKS
Spokane Intl   CLOUDY    29  24  82 S3        29.61F
Spokane Downto CLOUDY    31  28  89 NE3       29.64S
Coeur d Alene  FLURRIES  29  27  92 SW5       29.63S WCI  24
Deer Park      CLOUDY    28  24  85 SE5       29.63S WCI  23
Sandpoint      CLOUDY    30  25  80 CALM      29.63S
Bonners Ferry  CLOUDY    25  23  93 CALM      29.61R

...Southeast Washington and southern Idaho Panhandle...

CITY           SKY/WX    TMP DP  RH WIND       PRES   REMARKS
Walla Walla    CLOUDY    36  33  89 S12       29.70S
Pullman/Moscow LGT SNOW  30  26  85 SW12      29.66S FOG     WCI  20
Lewiston       CLOUDY    34  30  85 SE3       29.69R
Lowell           N/A     34  31  88 CALM      29.72R
Grangeville    CLOUDY    32  21  64 S17G26    29.61F WCI  21

...Columbia Basin...

CITY           SKY/WX    TMP DP  RH WIND       PRES   REMARKS
Ephrata        CLOUDY    33  27  78 S7        29.61F WCI  27
Moses Lake     LGT SNOW  34  30  85 SE8       29.62F FOG     WCI  27
Pasco          CLOUDY    41  31  67 S13       29.69S
Richland       CLOUDY    42  32  68 S21G29    29.68R
Hermiston      CLOUDY    39  34  82 SW13      29.69S
Pendleton      CLOUDY    33  33 100 S8        29.69F WCI  26

...East Slopes Cascades...

CITY           SKY/WX    TMP DP  RH WIND       PRES   REMARKS
The Dalles     MOCLDY    39  33  79 NW15      29.74R
Yakima         PTCLDY    36  30  79 SW6       29.63S
Ellensburg     CLOUDY    30  27  88 N5        29.61S FOG     WCI  25
Stampede Pass  HVY SNOW N/A N/A N/A NW12G17   29.53R VSB 1/4
Omak           LGT SNOW  29  24  82 E3        29.64S
Chelan           N/A     29  20  69 N7          N/A  WCI  21
Sunnyside      CLOUDY    37  27  67 CALM      29.66S

...Southern British Columbia...

CITY           SKY/WX    TMP DP  RH WIND       PRES   REMARKS
Penticton      LGT SNOW  27  25  93 NW3       29.68R
Cranbrook      MOCLDY    19  10  68 CALM      29.57R
Osoyoos          N/A     28  25  86 NW6         N/A  WCI  22
Creston          N/A     27  23  86 NW2         N/A

...Western Montana...

CITY           SKY/WX    TMP DP  RH WIND       PRES   REMARKS
Kalispell      CLOUDY    20  18  92 NW3       29.59R
Libby            N/A     25  23  93 CALM      29.58S
Missoula       MOCLDY    30  22  72 SW8       29.63R WCI  22

...Neighboring Cities...

CITY           SKY/WX    TMP DP  RH WIND       PRES   REMARKS
Seattle        LGT SNOW  35  33  92 VRB3      29.71R FOG
Portland       LGT RAIN  41  36  82 SW7       29.80R
Boise          FLURRIES  31  27  85 SE8       29.79R WCI  23
Great Falls    CLOUDY    14   9  80 S7        29.56R WCI   4
Calgary        CLOUDY    14   5  67 NE3       29.57R



USA.gov is the U.S. government's official web portal to all federal, state and local government web resources and services.